Regional Weather Roundup
Issued by NWS Midland/Odessa, TX

Home | Current Version | Previous Version | Text Only | Print | Product List | Glossary On
Versions: 1 2 3 4 5 6 7 8 9 10 11 12 13 14 15 16 17 18 19 20 21 22 23 24 25 26 27 28 29 30 31 32 33 34 35 36 37 38 39 40 41 42 43 44 45 46 47 48 49 50
000
ASUS44 KMAF 220410
RWRMAF
MIDLAND AREA WEATHER ROUNDUP
NATIONAL WEATHER SERVICE MIDLAND TX
1100 PM CDT SUN SEP 21 2014

...IN SOUTHWEST TEXAS AND SOUTHEAST NEW MEXICO...

CITY           SKY/WX    TMP DP  RH WIND       PRES   REMARKS
ALPINE         PTCLDY    69  63  82 E8        30.30R
ANDREWS        DRIZZLE   69  68  98 E3        30.25R
ARTESIA        NOT AVBL
BIG SPRING     CLOUDY    74  70  88 NE6       30.22S
CARLSBAD       CLOUDY    69  32  25 CALM      30.23R
DRYDEN           N/A     81  68  64 E9        30.13R
FORT STOCKTON  CLOUDY    72  66  81 SE7       30.18R
GUAD PASS      LGT RAIN  62  62 100 E29G36      N/A  VSB 1/4
HOBBS          CLOUDY    68  68 100 NE7       30.27S
MARFA          MOCLDY    66  63  88 E7        30.28R
MIDLAND AIRPK  CLOUDY    72  72  99 NE3       30.22S
MIDLAND INTL   CLOUDY    71  70  96 NE6       30.21R
ODESSA         LGT RAIN  71  68  90 NE9       30.23R FOG
PECOS          LGT RAIN  70  67  91 NE5       30.19R
PRESIDIO       FAIR      80  65  61 NE15G23   30.10R
SEMINOLE       CLOUDY    68  67  97 CALM      30.26S
SNYDER         CLOUDY    71  69  93 N8        30.21R
WINK           LGT RAIN  71  68  90 E12       30.19R
$$
...OTHER STATIONS IN TEXAS...

CITY           SKY/WX    TMP DP  RH WIND       PRES   REMARKS
ABILENE        PTCLDY    77  67  71 CALM      30.16R
AMARILLO       CLOUDY    66  63  90 E9        30.31S
AUSTIN         PTCLDY    72  68  87 CALM      30.06S
BROWNSVILLE    MOCLDY    80  76  87 CALM      29.97R
CORPUS CHRISTI PTCLDY    81  72  74 E12       30.01R
DALLAS FTW     MOCLDY    82  65  56 N10       30.09R
DEL RIO        CLOUDY    80  72  76 CALM      30.07R
EL PASO        CLOUDY    74  62  66 NE13      30.17R
HOUSTON INT    CLEAR     75  70  84 CALM      30.03R
LUBBOCK        CLOUDY    68  65  90 NE9       30.26R
SAN ANGELO     CLOUDY    75  68  78 CALM      30.15R
SAN ANTONIO    CLEAR     80  65  59 E5        30.08R
WACO           MOCLDY    74  66  76 CALM      30.08R
WICHITA FALLS  NOT AVBL
$$
...OTHER LOCATIONS IN NEW MEXICO...

CITY           SKY/WX    TMP DP  RH WIND       PRES   REMARKS
ALAMAGORDO     MOCLDY    72  61  68 SE5       30.20R
ALBUQUERQUE    MOCLDY    71  54  54 SE14      30.29R
CANNON AFB     MOCLDY    66  66 100 E8        30.32R
CLOVIS           N/A     64  61  88 NE7       30.35R
HOLLOMAN AFB   MOCLDY    73  64  72 W6        30.17R
ROSWELL        CLOUDY    69  64  84 CALM      30.26R
RUIDOSO        LGT RAIN  57  57 100 SE8       30.44R
SANTA FE       CLOUDY    65  54  67 SE16      30.37R
TRUTH OR CONSE CLOUDY    71  60  68 N13       30.23R
TUCUMCARI      LGT RAIN  66  63  90 E8        30.30R
$$


USA.gov is the U.S. government's official web portal to all federal, state and local government web resources and services.